Time,TemperatureF,DewpointF,PressureIn,WindDirection,WindDirectionDegrees,WindSpeedMPH,WindSpeedGustMPH,Humidity,HourlyPrecipIn,Conditions,Clouds,dailyrainin,SoftwareType,DateUTC
2013-06-18 00:00:00,60.4,59.0,29.90,WSW,241,0.0,0.0,95,0.00,RA,,0.00,WeatherDisplay:10.37,2013-06-18 04:00:00,
2013-06-18 00:10:00,60.3,58.9,29.89,WSW,241,0.0,0.0,95,0.00,SCT,,0.00,WeatherDisplay:10.37,2013-06-18 04:10:00,
2013-06-18 00:30:00,59.6,58.2,29.90,WSW,241,0.0,0.0,95,0.00,SCT,,0.00,WeatherDisplay:10.37,2013-06-18 04:30:00,
2013-06-18 00:40:00,59.6,58.2,29.90,WSW,241,0.0,2.0,95,0.00,SCT,,0.00,WeatherDisplay:10.37,2013-06-18 04:40:00,
2013-06-18 00:50:00,59.3,57.9,29.90,WSW,241,0.0,2.0,95,0.00,SCT,,0.00,WeatherDisplay:10.37,2013-06-18 04:50:00,
2013-06-18 01:00:00,59.1,57.7,29.90,WSW,241,0.0,0.0,95,0.00,SCT,,0.00,WeatherDisplay:10.37,2013-06-18 05:00:00,
2013-06-18 01:10:00,58.9,57.5,29.90,WSW,241,0.0,0.0,95,0.00,SCT,,0.00,WeatherDisplay:10.37,2013-06-18 05:10:00,
2013-06-18 01:20:00,58.6,57.2,29.90,WSW,241,0.0,0.0,95,0.00,SCT,,0.00,WeatherDisplay:10.37,2013-06-18 05:20:00,
2013-06-18 01:30:00,58.4,56.9,29.90,WSW,241,0.0,0.0,95,0.00,SCT,,0.00,WeatherDisplay:10.37,2013-06-18 05:30:00,
2013-06-18 01:40:00,58.5,57.1,29.90,WSW,241,0.0,2.0,95,0.00,SCT,,0.00,WeatherDisplay:10.37,2013-06-18 05:40:00,
2013-06-18 01:50:00,58.2,56.8,29.90,WSW,241,0.0,0.0,95,0.00,SCT,,0.00,WeatherDisplay:10.37,2013-06-18 05:50:00,
2013-06-18 02:00:00,58.0,56.6,29.90,WSW,241,0.0,0.0,95,0.00,SCT,,0.00,WeatherDisplay:10.37,2013-06-18 06:00:00,
2013-06-18 02:10:00,57.9,56.5,29.90,WSW,241,0.0,0.0,95,0.00,SCT,,0.00,WeatherDisplay:10.37,2013-06-18 06:10:00,
2013-06-18 02:20:00,57.7,56.3,29.89,WSW,241,0.0,2.0,95,0.00,SCT,,0.00,WeatherDisplay:10.37,2013-06-18 06:20:00,
2013-06-18 02:30:00,57.8,56.4,29.88,WSW,241,0.0,2.0,95,0.00,SCT,,0.00,WeatherDisplay:10.37,2013-06-18 06:30:00,
2013-06-18 02:40:00,57.7,56.3,29.89,WSW,241,0.0,0.0,95,0.00,SCT,,0.00,WeatherDisplay:10.37,2013-06-18 06:40:00,
2013-06-18 02:50:00,57.7,56.3,29.89,WSW,241,0.0,2.0,95,0.00,SCT,,0.00,WeatherDisplay:10.37,2013-06-18 06:50:00,
2013-06-18 03:00:00,57.9,56.8,29.89,WSW,241,1.0,3.0,96,0.00,SCT,,0.00,WeatherDisplay:10.37,2013-06-18 07:00:00,
2013-06-18 03:10:00,58.6,57.4,29.89,WSW,241,0.0,1.0,96,0.00,SCT,,0.00,WeatherDisplay:10.37,2013-06-18 07:10:00,
2013-06-18 03:20:00,58.6,57.5,29.89,WSW,241,0.0,0.0,96,0.00,SCT,,0.00,WeatherDisplay:10.37,2013-06-18 07:20:00,
2013-06-18 03:30:00,59.0,57.8,29.89,WSW,241,0.0,0.0,96,0.00,SCT,,0.00,WeatherDisplay:10.37,2013-06-18 07:30:00,
2013-06-18 03:40:00,59.2,58.1,29.89,WSW,241,0.0,3.0,96,0.00,SCT,,0.00,WeatherDisplay:10.37,2013-06-18 07:40:00,
2013-06-18 03:50:00,59.4,58.3,29.89,WSW,241,0.0,2.0,96,0.00,SCT,,0.00,WeatherDisplay:10.37,2013-06-18 07:50:00,
2013-06-18 04:00:00,59.5,58.4,29.89,WNW,301,2.0,9.0,96,0.00,SCT,,0.00,WeatherDisplay:10.37,2013-06-18 08:00:00,
2013-06-18 04:10:00,59.5,58.4,29.90,NW,305,2.0,6.0,96,0.00,BKN,,0.00,WeatherDisplay:10.37,2013-06-18 08:10:00,
2013-06-18 04:20:00,59.5,58.3,29.89,NW,307,0.0,5.0,96,0.00,BKN,,0.00,WeatherDisplay:10.37,2013-06-18 08:20:00,
2013-06-18 04:30:00,59.5,58.4,29.89,NW,323,2.0,8.0,96,0.00,BKN,,0.00,WeatherDisplay:10.37,2013-06-18 08:30:00,
2013-06-18 04:40:00,59.5,58.4,29.90,NW,323,2.0,8.0,96,0.00,BKN,,0.00,WeatherDisplay:10.37,2013-06-18 08:40:00,
2013-06-18 04:50:00,59.5,58.4,29.90,NW,317,2.0,8.0,96,0.00,BKN,,0.00,WeatherDisplay:10.37,2013-06-18 08:50:00,
2013-06-18 05:00:00,59.5,58.4,29.90,NW,326,0.0,5.0,96,0.00,BKN,,0.00,WeatherDisplay:10.37,2013-06-18 09:00:00,
2013-06-18 05:10:00,59.3,58.2,29.90,North,3,1.0,5.0,96,0.00,OVC,,0.00,WeatherDisplay:10.37,2013-06-18 09:10:00,
2013-06-18 05:20:00,59.4,58.3,29.90,WNW,301,1.0,3.0,96,0.00,OVC,,0.00,WeatherDisplay:10.37,2013-06-18 09:20:00,
2013-06-18 05:30:00,59.0,57.6,29.90,NNW,333,1.0,3.0,95,0.00,OVC,,0.00,WeatherDisplay:10.37,2013-06-18 09:30:00,
2013-06-18 05:40:00,58.7,57.3,29.90,North,360,1.0,5.0,95,0.00,OVC,,0.00,WeatherDisplay:10.37,2013-06-18 09:40:00,
2013-06-18 05:50:00,58.4,57.0,29.90,NW,322,1.0,3.0,95,0.00,OVC,,0.00,WeatherDisplay:10.37,2013-06-18 09:50:00,
2013-06-18 06:00:00,58.1,56.7,29.91,NW,315,0.0,5.0,95,0.00,OVC,,0.00,WeatherDisplay:10.37,2013-06-18 10:00:00,
2013-06-18 06:10:00,57.9,56.2,29.91,NW,315,2.0,3.0,94,0.00,BKN,,0.00,WeatherDisplay:10.37,2013-06-18 10:10:00,
2013-06-18 06:20:00,57.8,56.1,29.90,NW,313,0.0,5.0,94,0.00,BKN,,0.00,WeatherDisplay:10.37,2013-06-18 10:20:00,
2013-06-18 06:30:00,57.9,56.1,29.91,NW,324,1.0,6.0,94,0.00,BKN,,0.00,WeatherDisplay:10.37,2013-06-18 10:30:00,
2013-06-18 06:40:00,57.7,56.0,29.91,NNW,330,2.0,8.0,94,0.00,BKN,,0.00,WeatherDisplay:10.37,2013-06-18 10:40:00,
2013-06-18 06:50:00,57.7,55.7,29.91,NNW,327,0.0,8.0,93,0.00,BKN,,0.00,WeatherDisplay:10.37,2013-06-18 10:50:00,
2013-06-18 07:00:00,58.4,56.1,29.92,NW,318,3.0,6.0,92,0.00,BKN,,0.00,WeatherDisplay:10.37,2013-06-18 11:00:00,
2013-06-18 07:10:00,59.1,56.2,29.91,NNW,333,2.0,8.0,90,0.00,BKN,,0.00,WeatherDisplay:10.37,2013-06-18 11:10:00,
2013-06-18 07:20:00,59.5,56.6,29.92,North,5,5.0,8.0,90,0.00,BKN,,0.00,WeatherDisplay:10.37,2013-06-18 11:20:00,
2013-06-18 07:30:00,59.7,57.1,29.92,NNW,341,3.0,9.0,91,0.00,BKN,,0.00,WeatherDisplay:10.37,2013-06-18 11:30:00,
2013-06-18 07:40:00,60.4,57.1,29.92,NNW,335,2.0,6.0,89,0.00,BKN,,0.00,WeatherDisplay:10.37,2013-06-18 11:40:00,
2013-06-18 07:50:00,60.2,56.6,29.92,NNW,332,6.0,9.0,88,0.00,BKN,,0.00,WeatherDisplay:10.37,2013-06-18 11:50:00,
2013-06-18 08:00:00,61.4,57.5,29.92,NNW,338,1.0,10.0,87,0.00,BKN,,0.00,WeatherDisplay:10.37,2013-06-18 12:00:00,
2013-06-18 08:10:00,61.1,57.2,29.92,NNW,332,3.0,9.0,87,0.00,BKN,,0.00,WeatherDisplay:10.37,2013-06-18 12:10:00,
2013-06-18 08:20:00,61.2,56.9,29.92,NNW,348,3.0,6.0,86,0.00,BKN,,0.00,WeatherDisplay:10.37,2013-06-18 12:20:00,
2013-06-18 08:30:00,61.6,57.0,29.92,North,0,1.0,8.0,85,0.00,BKN,,0.00,WeatherDisplay:10.37,2013-06-18 12:30:00,
2013-06-18 08:40:00,61.3,56.4,29.92,NNW,335,2.0,6.0,84,0.00,BKN,,0.00,WeatherDisplay:10.37,2013-06-18 12:40:00,
2013-06-18 08:50:00,60.6,57.3,29.92,North,7,1.0,5.0,89,0.01,RA,,0.01,WeatherDisplay:10.37,2013-06-18 12:50:00,
2013-06-18 09:00:00,60.7,57.4,29.93,NE,40,0.0,3.0,89,0.00,BKN,,0.01,WeatherDisplay:10.37,2013-06-18 13:00:00,
2013-06-18 09:10:00,60.8,56.9,29.92,NW,311,2.0,3.0,87,0.00,BKN,,0.01,WeatherDisplay:10.37,2013-06-18 13:10:00,
2013-06-18 09:20:00,61.0,57.7,29.92,NW,312,5.0,5.0,89,0.00,BKN,,0.01,WeatherDisplay:10.37,2013-06-18 13:20:00,
2013-06-18 09:30:00,61.3,58.0,29.93,NW,319,6.0,6.0,89,0.00,BKN,,0.01,WeatherDisplay:10.37,2013-06-18 13:30:00,
2013-06-18 09:40:00,61.7,57.7,29.93,NW,321,5.0,9.0,87,0.00,BKN,,0.01,WeatherDisplay:10.37,2013-06-18 13:40:00,
2013-06-18 09:50:00,61.5,57.6,29.93,NW,325,7.0,10.0,87,0.00,BKN,,0.01,WeatherDisplay:10.37,2013-06-18 13:50:00,
2013-06-18 10:00:00,61.6,58.0,29.93,NW,324,5.0,10.0,88,0.00,-RA,,0.01,WeatherDisplay:10.37,2013-06-18 14:00:00,
2013-06-18 10:10:00,61.9,57.3,29.94,North,356,3.0,6.0,85,0.00,-RA,,0.01,WeatherDisplay:10.37,2013-06-18 14:10:00,
2013-06-18 10:20:00,62.1,57.2,29.93,NNW,338,2.0,12.0,84,0.00,-RA,,0.01,WeatherDisplay:10.37,2013-06-18 14:20:00,
2013-06-18 10:30:00,62.3,57.4,29.94,North,352,5.0,10.0,84,0.00,-RA,,0.01,WeatherDisplay:10.37,2013-06-18 14:30:00,
2013-06-18 10:40:00,62.3,57.1,29.94,NNW,342,7.0,9.0,83,0.00,-RA,,0.01,WeatherDisplay:10.37,2013-06-18 14:40:00,
2013-06-18 10:50:00,62.4,57.2,29.94,North,358,3.0,6.0,83,0.00,-RA,,0.01,WeatherDisplay:10.37,2013-06-18 14:50:00,
2013-06-18 11:00:00,62.5,57.6,29.94,North,349,8.0,10.0,84,0.00,-RA,,0.01,WeatherDisplay:10.37,2013-06-18 15:00:00,
2013-06-18 11:10:00,62.7,57.5,29.95,North,5,7.0,16.0,83,0.00,OVC,,0.01,WeatherDisplay:10.37,2013-06-18 15:10:00,
2013-06-18 11:20:00,63.2,57.6,29.95,North,358,5.0,14.0,82,0.00,OVC,,0.01,WeatherDisplay:10.37,2013-06-18 15:20:00,
2013-06-18 11:30:00,64.1,57.1,29.95,NNW,345,10.0,20.0,78,0.00,OVC,,0.01,WeatherDisplay:10.37,2013-06-18 15:30:00,
2013-06-18 11:40:00,63.3,55.6,29.95,North,359,17.0,18.0,76,0.00,OVC,,0.01,WeatherDisplay:10.37,2013-06-18 15:40:00,
2013-06-18 11:50:00,63.1,55.5,29.94,North,357,6.0,18.0,76,0.00,OVC,,0.01,WeatherDisplay:10.37,2013-06-18 15:50:00,
2013-06-18 12:00:00,63.1,55.4,29.94,NNW,346,5.0,16.0,76,0.00,OVC,,0.01,WeatherDisplay:10.37,2013-06-18 16:00:00,
2013-06-18 12:10:00,63.5,55.1,29.95,North,9,12.0,15.0,74,0.00,OVC,,0.01,WeatherDisplay:10.37,2013-06-18 16:10:00,
2013-06-18 12:20:00,62.9,54.5,29.95,NNE,16,6.0,18.0,74,0.00,OVC,,0.01,WeatherDisplay:10.37,2013-06-18 16:20:00,
2013-06-18 12:30:00,62.3,54.3,29.95,NNW,330,9.0,20.0,75,0.00,OVC,,0.01,WeatherDisplay:10.37,2013-06-18 16:30:00,
2013-06-18 12:40:00,63.2,55.5,29.94,North,358,2.0,18.0,76,0.00,OVC,,0.01,WeatherDisplay:10.37,2013-06-18 16:40:00,
2013-06-18 12:50:00,64.5,55.7,29.94,NNE,25,6.0,14.0,73,0.00,OVC,,0.01,WeatherDisplay:10.37,2013-06-18 16:50:00,
2013-06-18 13:00:00,64.4,54.8,29.94,North,10,10.0,15.0,71,0.00,OVC,,0.01,WeatherDisplay:10.37,2013-06-18 17:00:00,
2013-06-18 13:10:00,64.8,55.5,29.94,NNE,26,9.0,14.0,72,0.00,OVC,,0.01,WeatherDisplay:10.37,2013-06-18 17:10:00,
2013-06-18 13:20:00,64.7,55.5,29.94,NNE,13,12.0,16.0,72,0.01,RA,,0.02,WeatherDisplay:10.37,2013-06-18 17:20:00,
2013-06-18 13:30:00,65.8,56.5,29.94,NNW,343,12.0,12.0,72,0.00,OVC,,0.02,WeatherDisplay:10.37,2013-06-18 17:30:00,
2013-06-18 13:40:00,65.3,56.4,29.94,NNW,347,7.0,16.0,73,0.00,OVC,,0.02,WeatherDisplay:10.37,2013-06-18 17:40:00,
2013-06-18 13:50:00,65.2,55.9,29.93,NNW,346,9.0,15.0,72,0.00,OVC,,0.02,WeatherDisplay:10.37,2013-06-18 17:50:00,
2013-06-18 14:00:00,65.3,55.3,29.93,North,10,9.0,21.0,70,0.00,OVC,,0.02,WeatherDisplay:10.37,2013-06-18 18:00:00,
2013-06-18 14:10:00,64.9,55.7,29.92,NNE,22,7.0,15.0,72,0.00,OVC,,0.02,WeatherDisplay:10.37,2013-06-18 18:10:00,
2013-06-18 14:20:00,64.9,55.7,29.92,North,0,9.0,16.0,72,0.00,OVC,,0.02,WeatherDisplay:10.37,2013-06-18 18:20:00,
2013-06-18 14:30:00,64.3,55.8,29.92,North,359,9.0,18.0,74,0.00,OVC,,0.02,WeatherDisplay:10.37,2013-06-18 18:30:00,
2013-06-18 14:40:00,64.6,56.1,29.92,North,4,5.0,14.0,74,0.00,OVC,,0.02,WeatherDisplay:10.37,2013-06-18 18:40:00,
2013-06-18 14:50:00,64.0,55.2,29.92,North,355,15.0,16.0,73,0.00,OVC,,0.02,WeatherDisplay:10.37,2013-06-18 18:50:00,
2013-06-18 15:00:00,63.1,55.1,29.93,NNW,339,12.0,16.0,75,0.00,OVC,,0.02,WeatherDisplay:10.37,2013-06-18 19:00:00,
2013-06-18 15:10:00,62.6,55.3,29.92,North,357,9.0,16.0,77,0.00,OVC,,0.02,WeatherDisplay:10.37,2013-06-18 19:10:00,
2013-06-18 15:20:00,62.4,55.8,29.93,North,358,9.0,12.0,79,0.00,OVC,,0.02,WeatherDisplay:10.37,2013-06-18 19:20:00,
2013-06-18 15:30:00,62.7,55.7,29.93,North,351,7.0,12.0,78,0.00,OVC,,0.02,WeatherDisplay:10.37,2013-06-18 19:30:00,
2013-06-18 15:40:00,62.6,56.0,29.92,NNE,17,9.0,10.0,79,0.00,OVC,,0.02,WeatherDisplay:10.37,2013-06-18 19:40:00,
2013-06-18 15:50:00,63.0,56.0,29.92,North,359,15.0,20.0,78,0.00,OVC,,0.02,WeatherDisplay:10.37,2013-06-18 19:50:00,
2013-06-18 16:00:00,62.4,55.4,29.92,North,352,13.0,15.0,78,0.00,OVC,,0.02,WeatherDisplay:10.37,2013-06-18 20:00:00,
2013-06-18 16:10:00,61.6,55.1,29.92,NNW,346,7.0,14.0,79,0.00,OVC,,0.02,WeatherDisplay:10.37,2013-06-18 20:10:00,
2013-06-18 16:20:00,61.8,54.9,29.92,North,358,7.0,14.0,78,0.00,OVC,,0.02,WeatherDisplay:10.37,2013-06-18 20:20:00,
2013-06-18 16:30:00,61.6,54.3,29.92,North,350,9.0,16.0,77,0.00,OVC,,0.02,WeatherDisplay:10.37,2013-06-18 20:30:00,
2013-06-18 16:40:00,61.9,54.3,29.92,NNW,344,6.0,15.0,76,0.00,OVC,,0.02,WeatherDisplay:10.37,2013-06-18 20:40:00,
2013-06-18 16:50:00,61.7,53.0,29.93,North,7,8.0,16.0,73,0.00,OVC,,0.02,WeatherDisplay:10.37,2013-06-18 20:50:00,
2013-06-18 17:00:00,61.8,52.7,29.93,North,357,8.0,16.0,72,0.00,OVC,,0.02,WeatherDisplay:10.37,2013-06-18 21:00:00,
2013-06-18 17:10:00,61.4,52.7,29.93,NNE,13,3.0,12.0,73,0.00,OVC,,0.02,WeatherDisplay:10.37,2013-06-18 21:10:00,
2013-06-18 17:20:00,61.4,53.0,29.94,North,1,5.0,12.0,74,0.00,OVC,,0.02,WeatherDisplay:10.37,2013-06-18 21:20:00,
2013-06-18 17:30:00,61.5,53.1,29.93,North,8,5.0,15.0,74,0.00,OVC,,0.02,WeatherDisplay:10.37,2013-06-18 21:30:00,
2013-06-18 17:40:00,61.8,54.2,29.93,NNW,347,7.0,14.0,76,0.00,OVC,,0.02,WeatherDisplay:10.37,2013-06-18 21:40:00,
2013-06-18 17:50:00,62.0,54.0,29.92,North,4,9.0,10.0,75,0.00,OVC,,0.02,WeatherDisplay:10.37,2013-06-18 21:50:00,
2013-06-18 18:00:00,62.0,54.4,29.93,NNW,344,6.0,12.0,76,0.00,OVC,,0.02,WeatherDisplay:10.37,2013-06-18 22:00:00,
2013-06-18 18:10:00,62.1,53.7,29.93,NNW,346,10.0,14.0,74,0.00,OVC,,0.02,WeatherDisplay:10.37,2013-06-18 22:10:00,
2013-06-18 18:20:00,62.2,53.4,29.92,NNE,22,3.0,8.0,73,0.00,OVC,,0.02,WeatherDisplay:10.37,2013-06-18 22:20:00,
2013-06-18 18:30:00,62.1,54.1,29.92,NNW,345,1.0,12.0,75,0.00,OVC,,0.02,WeatherDisplay:10.37,2013-06-18 22:30:00,
2013-06-18 18:40:00,62.2,54.5,29.93,NNW,343,2.0,9.0,76,0.00,OVC,,0.02,WeatherDisplay:10.37,2013-06-18 22:40:00,
2013-06-18 18:50:00,62.0,54.3,29.93,NNW,333,3.0,9.0,76,0.00,OVC,,0.02,WeatherDisplay:10.37,2013-06-18 22:50:00,
2013-06-18 19:00:00,61.8,54.2,29.93,NW,314,5.0,9.0,76,0.00,OVC,,0.02,WeatherDisplay:10.37,2013-06-18 23:00:00,
2013-06-18 19:10:00,61.7,54.4,29.93,NNW,331,3.0,6.0,77,0.00,OVC,,0.02,WeatherDisplay:10.37,2013-06-18 23:10:00,
2013-06-18 19:20:00,61.6,54.3,29.93,NW,316,0.0,6.0,77,0.00,OVC,,0.02,WeatherDisplay:10.37,2013-06-18 23:20:00,
2013-06-18 19:30:00,61.6,54.3,29.93,NNW,331,0.0,5.0,77,0.00,OVC,,0.02,WeatherDisplay:10.37,2013-06-18 23:30:00,
2013-06-18 19:40:00,61.3,54.1,29.93,NNW,333,2.0,6.0,77,0.00,OVC,,0.02,WeatherDisplay:10.37,2013-06-18 23:40:00,
2013-06-18 19:50:00,61.2,54.3,29.93,NNW,334,1.0,6.0,78,0.00,OVC,,0.02,WeatherDisplay:10.37,2013-06-18 23:50:00,
2013-06-18 20:00:00,61.0,54.1,29.93,NW,316,0.0,6.0,78,0.00,OVC,,0.02,WeatherDisplay:10.37,2013-06-19 00:00:00,
2013-06-18 20:10:00,60.9,54.4,29.92,NW,317,0.0,3.0,79,0.00,BKN,,0.02,WeatherDisplay:10.37,2013-06-19 00:10:00,
2013-06-18 20:20:00,60.8,54.2,29.92,NW,315,1.0,5.0,79,0.00,BKN,,0.02,WeatherDisplay:10.37,2013-06-19 00:20:00,
2013-06-18 20:30:00,60.4,54.2,29.92,WNW,303,2.0,5.0,80,0.00,BKN,,0.02,WeatherDisplay:10.37,2013-06-19 00:30:00,
2013-06-18 20:40:00,60.0,53.8,29.92,WNW,302,0.0,3.0,80,0.00,BKN,,0.02,WeatherDisplay:10.37,2013-06-19 00:40:00,
2013-06-18 20:50:00,59.4,53.9,29.92,WNW,302,0.0,3.0,82,0.00,BKN,,0.02,WeatherDisplay:10.37,2013-06-19 00:50:00,
2013-06-18 21:00:00,58.4,53.5,29.93,WNW,302,0.0,3.0,84,0.00,BKN,,0.02,WeatherDisplay:10.37,2013-06-19 01:00:00,
2013-06-18 21:10:00,57.6,53.8,29.93,WNW,302,0.0,0.0,87,0.00,BKN,,0.02,WeatherDisplay:10.37,2013-06-19 01:10:00,
2013-06-18 21:20:00,57.0,53.5,29.94,WNW,302,0.0,0.0,88,0.00,BKN,,0.02,WeatherDisplay:10.37,2013-06-19 01:20:00,
2013-06-18 21:30:00,56.5,52.9,29.94,WNW,302,0.0,0.0,88,0.00,BKN,,0.02,WeatherDisplay:10.37,2013-06-19 01:30:00,
2013-06-18 21:40:00,55.9,52.7,29.94,WNW,302,0.0,0.0,89,0.00,BKN,,0.02,WeatherDisplay:10.37,2013-06-19 01:40:00,
2013-06-18 21:50:00,55.7,52.8,29.94,WNW,302,0.0,0.0,90,0.00,BKN,,0.02,WeatherDisplay:10.37,2013-06-19 01:50:00,
2013-06-18 22:00:00,55.5,52.9,29.95,WNW,302,0.0,0.0,91,0.00,BKN,,0.02,WeatherDisplay:10.37,2013-06-19 02:00:00,
2013-06-18 22:10:00,54.9,52.3,29.94,WNW,302,0.0,0.0,91,0.00,SCT,,0.02,WeatherDisplay:10.37,2013-06-19 02:10:00,
2013-06-18 22:20:00,54.6,52.3,29.94,WNW,302,0.0,0.0,92,0.00,SCT,,0.02,WeatherDisplay:10.37,2013-06-19 02:20:00,
2013-06-18 22:30:00,54.2,51.9,29.94,WNW,302,0.0,0.0,92,0.00,SCT,,0.02,WeatherDisplay:10.37,2013-06-19 02:30:00,
2013-06-18 22:40:00,53.9,51.9,29.95,WNW,302,0.0,0.0,93,0.00,SCT,,0.02,WeatherDisplay:10.37,2013-06-19 02:40:00,
2013-06-18 22:50:00,53.7,51.7,29.95,WNW,302,0.0,0.0,93,0.00,SCT,,0.02,WeatherDisplay:10.37,2013-06-19 02:50:00,
2013-06-18 23:00:00,53.5,51.5,29.95,WNW,302,0.0,2.0,93,0.00,SCT,,0.02,WeatherDisplay:10.37,2013-06-19 03:00:00,
2013-06-18 23:10:00,53.4,51.5,29.95,WNW,302,0.0,2.0,93,0.00,SCT,,0.02,WeatherDisplay:10.37,2013-06-19 03:10:00,
2013-06-18 23:20:00,53.5,51.8,29.95,WNW,302,0.0,2.0,94,0.00,SCT,,0.02,WeatherDisplay:10.37,2013-06-19 03:20:00,
2013-06-18 23:30:00,53.5,51.8,29.95,WNW,302,0.0,2.0,94,0.00,SCT,,0.02,WeatherDisplay:10.37,2013-06-19 03:30:00,
2013-06-18 23:40:00,53.5,51.8,29.95,WNW,302,0.0,3.0,94,0.00,SCT,,0.02,WeatherDisplay:10.37,2013-06-19 03:40:00,
2013-06-18 23:50:00,53.3,51.6,29.96,WNW,302,0.0,2.0,94,0.00,SCT,,0.02,WeatherDisplay:10.37,2013-06-19 03:50:00,